Satellite-Ground Cal/Val Site Overpasses Predictions

Prediction of Satellite NPP Overpassing Cal/Val Site: Antarctic Dome C

Ground Cal/Val Site Location: Latitude: -75.10, Longitude: 123.35; Satellite-Ground Site NADIR distance within 100 km.

Table of predicted overpasses for the next 14.0 days since TLE Epoch: 7/8/2023
Interval Starting Time Ending Time Minimum Distance Time Minimum Distance (km)
1 07/09/2023 14:56:21 07/09/2023 14:56:50 07/09/2023 14:56:36 17.67
2 07/10/2023 14:37:40 07/10/2023 14:37:52 07/10/2023 14:37:46 89.39
3 07/11/2023 07:39:12 07/11/2023 07:39:39 07/11/2023 07:39:25 37.48
4 07/12/2023 07:20:25 07/12/2023 07:20:45 07/12/2023 07:20:35 72.62
5 07/14/2023 15:02:41 07/14/2023 15:03:05 07/14/2023 15:02:53 54.95
6 07/15/2023 14:43:52 07/15/2023 14:44:16 07/15/2023 14:44:04 54.08
7 07/16/2023 07:45:32 07/16/2023 07:45:52 07/16/2023 07:45:42 73.06
8 07/17/2023 07:26:40 07/17/2023 07:27:07 07/17/2023 07:26:53 34.86
9 07/19/2023 15:09:06 07/19/2023 15:09:16 07/19/2023 15:09:11 93.11
